FW8563 Weather Reports


Display with metric or nautical units.
time (UTC)temp
F
wind
direction
speed
MPH
gust
MPH
rain 1hr
in
rain 24hr
in
rain mn
in
humidity
%
barometer
mb
20260506210528 56 213 3.0 10.0 0.00 0.09 0.09 98 1015.6
20260506210028 56 191 4.0 11.0 0.00 0.09 0.09 98 1015.7
20260506205529 56 231 4.0 11.0 0.00 0.09 0.09 98 1015.7
20260506204528 56 184 4.0 12.0 0.00 0.09 0.09 98 1015.7
20260506204028 56 186 3.0 12.0 0.00 0.09 0.09 98 1015.4
20260506203530 56 139 2.0 10.0 0.00 0.09 0.09 98 1015.5
20260506201528 56 160 4.0 14.0 0.00 0.09 0.09 98 1015.4
20260506201025 56 217 3.0 14.0 0.00 0.09 0.09 98 1015.5
20260506200524 56 157 3.0 11.0 0.00 0.09 0.09 98 1015.4
20260506200024 56 110 3.0 11.0 0.02 0.09 0.09 98 1015.3
20260506195524 56 143 3.0 13.0 0.02 0.09 0.09 98 1015.2
20260506195026 56 195 3.0 13.0 0.02 0.09 0.09 98 1015.2
20260506194528 56 174 3.0 8.0 0.02 0.09 0.09 98 1015.2
20260506194024 56 218 3.0 9.0 0.02 0.09 0.09 98 1015.2
20260506193525 56 148 3.0 9.0 0.02 0.09 0.09 98 1015.1
20260506193025 56 217 3.0 10.0 0.02 0.09 0.09 98 1015.1
20260506192023 56 143 3.0 11.0 0.02 0.09 0.09 98 1015.0
20260506191522 56 176 3.0 11.0 0.02 0.09 0.09 98 1014.9
20260506191027 56 213 3.0 10.0 0.02 0.09 0.09 97 1014.8
20260506190525 56 199 3.0 11.0 0.02 0.09 0.09 97 1014.8
20260506190022 56 217 3.0 14.0 0.00 0.07 0.07 97 1014.7
20260506185522 56 218 3.0 14.0 0.00 0.07 0.07 97 1014.7
20260506185020 56 187 2.0 8.0 0.00 0.07 0.07 97 1014.6
20260506184016 56 192 2.0 7.0 0.00 0.07 0.07 97 1014.6
20260506183515 57 233 2.0 7.0 0.00 0.07 0.07 96 1014.6
20260506183015 57 211 2.0 9.0 0.00 0.07 0.07 96 1014.6
20260506182514 57 223 3.0 9.0 0.00 0.07 0.07 96 1014.6
20260506182013 57 214 3.0 10.0 0.00 0.07 0.07 96 1014.5
20260506181012 57 273 3.0 10.0 0.00 0.07 0.07 96 1014.6
20260506180515 57 225 2.0 7.0 0.00 0.07 0.07 95 1014.5
20260506180012 57 195 2.0 7.0 0.00 0.07 0.07 95 1014.5
20260506175008 57 157 2.0 8.0 0.00 0.07 0.07 95 1014.6
20260506174507 57 139 2.0 7.0 0.00 0.07 0.07 95 1014.5
20260506173503 57 115 3.0 13.0 0.00 0.07 0.07 94 1014.6
20260506172504 57 159 3.0 8.0 0.00 0.07 0.07 94 1014.5
20260506172005 57 142 3.0 10.0 0.00 0.07 0.07 94 1014.5
20260506171501 57 236 3.0 11.0 0.00 0.07 0.07 94 1014.4
20260506171004 57 146 4.0 11.0 0.00 0.07 0.07 95 1014.4
20260506170505 57 212 5.0 13.0 0.00 0.07 0.07 95 1014.4
20260506170000 57 92 4.0 17.0 0.00 0.07 0.07 95 1014.5
20260506165503 57 250 4.0 17.0 0.00 0.07 0.07 94 1014.5
20260506165001 57 193 4.0 11.0 0.00 0.07 0.07 94 1014.5
20260506164503 57 79 4.0 14.0 0.00 0.07 0.07 94 1014.5
20260506163501 57 152 3.0 13.0 0.00 0.07 0.07 94 1014.5
20260506161951 57 180 4.0 12.0 0.00 0.07 0.07 95 1014.5
20260506160950 57 223 5.0 12.0 0.00 0.07 0.07 95 1014.5
20260506160449 57 110 5.0 14.0 0.00 0.07 0.07 95 1014.4
20260506155949 57 106 5.0 14.0 0.00 0.07 0.07 95 1014.5
20260506154952 58 193 5.0 14.0 0.00 0.07 0.07 95 1014.6
20260506154452 58 230 6.0 14.0 0.01 0.07 0.07 94 1014.5
20260506153949 58 208 5.0 12.0 0.01 0.07 0.07 94 1014.6
20260506153451 58 225 5.0 12.0 0.01 0.07 0.07 94 1014.6
20260506152449 58 162 5.0 12.0 0.01 0.07 0.07 94 1014.5
20260506151948 58 147 4.0 12.0 0.01 0.07 0.07 94 1014.6
20260506151443 58 193 4.0 11.0 0.01 0.07 0.07 94 1014.5
20260506150943 58 202 4.0 12.0 0.01 0.07 0.07 95 1014.5
20260506150441 58 210 4.0 12.0 0.01 0.08 0.07 95 1014.5
20260506145942 58 240 4.0 11.0 0.01 0.08 0.07 95 1014.6
20260506145441 58 184 4.0 13.0 0.01 0.08 0.07 95 1014.4
20260506144943 58 231 4.0 13.0 0.01 0.08 0.07 95 1014.2
20260506144441 58 210 3.0 8.0 0.00 0.07 0.06 96 1014.2
20260506143942 58 196 4.0 12.0 0.00 0.07 0.06 96 1014.4
20260506143442 58 198 4.0 12.0 0.00 0.07 0.06 96 1014.4
20260506142941 57 181 4.0 11.0 0.00 0.07 0.06 96 1014.5
20260506142441 57 229 4.0 9.0 0.00 0.07 0.06 96 1014.6
20260506141941 57 282 4.0 12.0 0.01 0.07 0.06 96 1014.6
20260506141441 57 136 3.0 12.0 0.01 0.07 0.06 96 1014.7
20260506140943 57 212 3.0 12.0 0.01 0.07 0.06 96 1014.6
20260506140440 57 134 3.0 12.0 0.01 0.07 0.06 96 1014.6
20260506135934 57 192 3.0 10.0 0.01 0.07 0.06 96 1014.6
20260506134431 57 237 4.0 13.0 0.01 0.07 0.06 96 1014.6
20260506133931 57 139 5.0 13.0 0.01 0.07 0.06 95 1014.5
20260506132933 57 136 5.0 17.0 0.01 0.07 0.06 95 1014.5
20260506132431 57 160 4.0 17.0 0.01 0.07 0.06 95 1014.6
20260506131935 57 124 3.0 8.0 0.00 0.06 0.06 95 1014.5
20260506131433 57 140 3.0 8.0 0.00 0.06 0.06 95 1014.6
20260506130932 57 242 3.0 9.0 0.00 0.06 0.06 95 1014.7
20260506124931 57 186 6.0 15.0 0.00 0.06 0.06 93 1014.9
20260506124433 57 210 6.0 15.0 0.00 0.06 0.06 92 1015.0
20260506123932 58 205 5.0 12.0 0.00 0.07 0.06 90 1014.9
20260506123431 58 221 5.0 12.0 0.00 0.08 0.06 88 1015.0
20260506121931 59 196 6.0 13.0 0.00 0.11 0.06 86 1015.0
20260506121433 59 173 6.0 13.0 0.00 0.12 0.06 85 1015.1
20260506120931 59 206 6.0 13.0 0.00 0.13 0.06 83 1015.1
20260506120429 60 212 7.0 16.0 0.00 0.13 0.06 81 1015.2
20260506115931 60 204 7.0 16.0 0.00 0.13 0.06 79 1015.1
20260506115429 60 224 7.0 18.0 0.00 0.13 0.06 79 1014.9
20260506113925 61 226 8.0 16.0 0.00 0.14 0.06 78 1014.9
20260506113423 61 224 8.0 20.0 0.00 0.14 0.06 79 1014.8
20260506112923 60 166 9.0 20.0 0.00 0.15 0.06 81 1014.7
20260506112423 60 196 8.0 18.0 0.00 0.15 0.06 81 1014.8
20260506111923 60 127 8.0 18.0 0.00 0.15 0.06 82 1014.7
20260506111425 60 214 8.0 18.0 0.00 0.15 0.06 83 1014.8
20260506110422 60 186 7.0 18.0 0.00 0.16 0.06 81 1014.9
20260506104923 60 222 7.0 15.0 0.00 0.16 0.06 80 1015.1
20260506103923 59 200 7.0 16.0 0.00 0.17 0.06 82 1014.9
20260506103422 59 187 6.0 12.0 0.00 0.17 0.06 83 1015.0
20260506102922 59 200 6.0 12.0 0.00 0.17 0.06 83 1015.0
20260506102423 59 210 6.0 15.0 0.00 0.17 0.06 83 1015.2
20260506101918 59 164 6.0 16.0 0.00 0.18 0.06 82 1015.0
20260506100919 59 212 6.0 18.0 0.00 0.18 0.06 81 1015.2
20260506100419 59 233 7.0 18.0 0.00 0.18 0.06 80 1015.1
20260506095919 60 134 7.0 16.0 0.00 0.18 0.06 81 1015.2
20260506095418 59 216 8.0 17.0 0.00 0.18 0.06 81 1015.3
20260506094918 59 136 8.0 17.0 0.00 0.18 0.06 81 1015.2
20260506094419 59 202 8.0 15.0 0.00 0.18 0.06 81 1015.2
20260506093421 58 221 8.0 15.0 0.00 0.18 0.06 83 1015.1
20260506092920 58 209 8.0 15.0 0.00 0.19 0.06 85 1015.2
20260506092418 57 209 8.0 16.0 0.00 0.19 0.06 87 1015.0
20260506091921 57 207 6.0 16.0 0.00 0.19 0.06 93 1014.9
20260506091419 57 222 5.0 11.0 0.00 0.19 0.06 98 1015.1
20260506090418 56 194 5.0 14.0 0.00 0.20 0.06 99 1015.1
20260506085917 55 196 4.0 14.0 0.00 0.20 0.06 99 1015.1
20260506085415 55 173 4.0 11.0 0.00 0.20 0.06 99 1015.2
20260506084917 54 201 4.0 10.0 0.00 0.20 0.06 99 1015.2
20260506084414 54 202 3.0 8.0 0.00 0.20 0.06 99 1015.2
20260506083914 54 114 2.0 5.0 0.00 0.20 0.06 99 1015.1
20260506082914 54 223 3.0 10.0 0.00 0.21 0.06 99 1015.0
20260506082414 53 155 3.0 10.0 0.00 0.21 0.06 99 1014.9
20260506081917 53 151 4.0 10.0 0.00 0.21 0.06 99 1014.8
20260506081415 53 129 5.0 13.0 0.00 0.21 0.06 99 1014.7
20260506080424 53 238 4.0 13.0 0.00 0.21 0.06 99 1014.7
20260506073408 53 155 4.0 10.0 0.00 0.21 0.06 99 1014.6
20260506072910 53 162 4.0 10.0 0.00 0.21 0.06 99 1014.5
20260506072410 53 102 3.0 10.0 0.00 0.21 0.06 99 1014.6
20260506071908 52 165 3.0 10.0 0.00 0.21 0.06 99 1014.6
20260506071408 52 152 3.0 11.0 0.00 0.21 0.06 99 1014.6
20260506070909 52 114 4.0 11.0 0.00 0.21 0.06 99 1014.5
20260506070406 52 151 4.0 10.0 0.00 0.21 0.06 99 1014.7
20260506061403 52 211 4.0 12.0 0.02 0.21 0.06 99 1014.7
20260506060900 52 162 3.0 10.0 0.02 0.21 0.06 99 1014.7
20260506060400 52 158 4.0 10.0 0.02 0.21 0.06 99 1014.8
20260506051301 53 207 4.0 12.0 0.01 0.25 0.03 99 1014.7
20260506050552 53 150 4.0 12.0 0.00 0.27 0.02 99 1014.6
20260506035324 53 159 4.0 12.0 0.01 0.35 0.02 99 1014.5
20260506034824 53 161 4.0 12.0 0.00 0.35 0.02 99 1014.6
20260506034318 52 264 4.0 12.0 0.00 0.35 0.02 99 1014.4
20260506033811 52 217 5.0 13.0 0.00 0.35 0.02 99 1014.5
20260506032310 53 127 4.0 13.0 0.00 0.38 0.02 99 1014.5
20260506031807 53 241 4.0 11.0 0.00 0.39 0.02 99 1014.5
20260506031310 53 231 4.0 12.0 0.00 0.39 0.02 99 1014.5
20260506030818 53 148 5.0 14.0 0.00 0.39 0.02 99 1014.6
20260506030305 53 80 6.0 15.0 0.00 0.40 0.02 99 1014.6
20260506025805 53 164 6.0 15.0 0.00 0.40 0.02 99 1014.6
20260506025307 53 159 6.0 15.0 0.00 0.41 0.02 99 1014.7
20260506024808 53 152 5.0 14.0 0.00 0.41 0.02 99 1014.7
20260506024308 53 182 4.0 14.0 0.00 0.41 0.02 99 1014.8
20260506023808 53 183 4.0 10.0 0.00 0.41 0.02 99 1014.9
20260506023306 54 145 3.0 10.0 0.00 0.41 0.02 99 1015.0
20260506022804 54 117 3.0 11.0 0.00 0.42 0.02 99 1015.0
20260506022305 54 122 4.0 12.0 0.00 0.42 0.02 99 1015.1
20260506021804 53 240 4.0 14.0 0.01 0.42 0.02 99 1015.1
20260506021303 54 139 4.0 14.0 0.02 0.42 0.02 99 1015.1
20260506020302 54 131 4.0 11.0 0.02 0.42 0.02 99 1015.3
20260506015802 54 253 4.0 14.0 0.02 0.42 0.02 99 1015.3
20260506015306 54 161 4.0 14.0 0.02 0.42 0.02 99 1015.4
20260506014802 54 162 4.0 12.0 0.02 0.42 0.02 99 1015.4
20260506014305 54 193 6.0 16.0 0.02 0.42 0.02 99 1015.4
20260506013304 54 201 5.0 13.0 0.02 0.42 0.02 99 1015.5
20260506012804 54 137 5.0 13.0 0.02 0.42 0.02 99 1015.4
20260506012308 54 186 5.0 13.0 0.02 0.42 0.02 99 1015.4
20260506011804 54 150 5.0 13.0 0.01 0.42 0.01 99 1015.3
20260506011302 54 128 5.0 12.0 0.00 0.41 0.00 99 1015.4
20260506010804 54 140 4.0 11.0 0.00 0.41 0.00 99 1015.3
20260506010304 54 236 4.0 10.0 0.00 0.41 0.00 99 1015.4
20260506005802 54 149 3.0 9.0 0.00 0.41 0.00 99 1015.4
20260506005305 54 193 3.0 10.0 0.00 0.41 0.00 99 1015.4
20260506004800 54 187 3.0 10.0 0.00 0.41 0.00 99 1015.4
20260506004259 54 139 2.0 9.0 0.00 0.41 0.00 99 1015.4
20260506003800 54 234 2.0 7.0 0.00 0.41 0.00 99 1015.5
20260506002759 54 217 2.0 7.0 0.00 0.41 0.00 99 1015.5
20260506002259 54 163 2.0 7.0 0.00 0.41 0.00 99 1015.5
20260506001802 54 166 2.0 7.0 0.00 0.41 0.00 99 1015.5
20260506001303 55 220 2.0 8.0 0.00 0.41 0.00 99 1015.5
20260506000801 54 148 2.0 8.0 0.00 0.41 0.00 99 1015.6
20260505235800 54 155 3.0 10.0 0.00 0.41 0.00 99 1015.7
20260505234759 54 217 3.0 9.0 0.00 0.41 0.00 99 1015.7
20260505234258 54 139 3.0 10.0 0.00 0.41 0.00 99 1015.7
20260505233755 54 229 4.0 12.0 0.00 0.41 0.00 99 1015.7
20260505233252 54 141 4.0 12.0 0.00 0.41 0.00 99 1015.8
20260505232745 54 143 3.0 10.0 0.00 0.41 0.00 99 1015.8
20260505232240 54 141 3.0 11.0 0.00 0.41 0.00 99 1015.8
20260505231740 54 122 3.0 11.0 0.00 0.41 0.00 99 1015.8
20260505231235 54 122 3.0 11.0 0.00 0.41 0.00 99 1015.9
20260505230233 54 159 2.0 10.0 0.00 0.41 0.00 99 1016.0
20260505225734 54 129 3.0 10.0 0.00 0.41 0.00 99 1016.2
20260505225234 54 157 3.0 10.0 0.00 0.41 0.00 99 1016.2
20260505224735 54 136 4.0 13.0 0.00 0.41 0.00 99 1016.4
20260505224233 54 150 4.0 13.0 0.00 0.41 0.00 98 1016.4
20260505223733 54 147 4.0 10.0 0.00 0.41 0.00 99 1016.2
20260505223233 54 156 3.0 10.0 0.00 0.41 0.00 99 1016.4
20260505222736 54 124 3.0 10.0 0.00 0.41 0.00 98 1016.5
20260505222234 55 141 3.0 12.0 0.00 0.41 0.00 98 1016.5
20260505221727 55 207 2.0 12.0 0.00 0.41 0.00 99 1016.5
20260505221229 55 91 2.0 6.0 0.00 0.41 0.00 99 1016.5
20260505220230 55 210 2.0 7.0 0.00 0.41 0.00 98 1016.7
20260505215726 55 167 3.0 11.0 0.00 0.41 0.41 98 1016.8
20260505215227 55 144 3.0 11.0 0.00 0.41 0.41 98 1016.7
20260505214727 55 150 3.0 8.0 0.00 0.41 0.41 98 1016.8
20260505214228 55 203 3.0 8.0 0.00 0.41 0.41 98 1016.8
20260505213725 55 252 3.0 10.0 0.00 0.41 0.41 98 1016.9
20260505212720 55 167 4.0 10.0 0.00 0.41 0.41 98 1016.9
20260505212219 55 140 4.0 9.0 0.00 0.41 0.41 98 1016.9
20260505211720 55 186 4.0 13.0 0.00 0.41 0.41 98 1016.9
20260505211221 55 135 5.0 14.0 0.00 0.41 0.41 98 1017.0